Location: Albany
(35.0000°S, 118.0000°E)
Time: 04:11:51
(UTC-04:00)

Transit 2A - Visible Passes

Search period start: 22 September 2014 00:00
Search period end: 02 October 2014 00:00
Orbit: 600 x 962 km, 66.7° (Epoch: 21 September)

Date Brightness Start Highest point End Pass type
(mag) Time Alt. Az. Time Alt. Az. Time Alt. Az.
27 Sep 9.0 17:06:06 10° SSE 17:08:01 12° SE 17:09:52 10° ESE visible
29 Sep 8.8 09:00:34 11° SSE 09:00:34 11° SSE 09:00:43 10° SSE visible
29 Sep 9.1 10:40:55 13° SSW 10:40:55 13° SSW 10:42:11 10° S visible
30 Sep 6.4 08:14:33 10° NNW 08:23:27 37° SE 08:27:08 10° SSE visible
30 Sep 8.5 09:59:53 10° W 10:04:38 22° SW 10:09:21 10° S visible
30 Sep 8.3 17:06:50 10° S 17:11:21 26° SE 17:15:28 10° ENE visible
01 Oct 6.6 07:41:22 10° N 07:47:23 47° ENE 07:53:25 10° SE visible
01 Oct 8.1 09:25:25 10° WNW 09:30:52 29° SW 09:36:16 10° S visible
01 Oct 8.8 16:33:50 10° S 16:37:33 18° SE 16:41:01 10° E visible
